Hourly Weather Holovach

Today, 11 April, Sunday

Time Temperature Precipitation Wind Pressure Humidity
00:00 +6°C° 0 mm 2 mps 762 mmHg 55%
01:00 +6°C° 0 mm 2 mps 762 mmHg 57%
02:00 +5°C° 0 mm 2 mps 762 mmHg 59%
03:00 +4°C° 0 mm 3 mps 762 mmHg 60%
04:00 +4°C° 0 mm 3 mps 762 mmHg 61%
05:00 +3°C° 0 mm 3 mps 762 mmHg 62%
06:00 +5°C° 0 mm 3 mps 763 mmHg 57%
07:00 +8°C° 0 mm 3 mps 763 mmHg 52%
08:00 +8°C° 0 mm 4 mps 763 mmHg 46%
09:00 +11°C° 0 mm 4 mps 763 mmHg 42%
10:00 +12°C° 0 mm 5 mps 763 mmHg 38%
11:00 +13°C° 0 mm 5 mps 763 mmHg 34%
12:00 +14°C° 0 mm 5 mps 762 mmHg 33%
13:00 +14°C° 0 mm 5 mps 762 mmHg 32%
14:00 +15°C° 0 mm 5 mps 762 mmHg 30%
15:00 +15°C° 0 mm 5 mps 761 mmHg 33%
16:00 +14°C° 0 mm 5 mps 761 mmHg 35%
17:00 +14°C° 0 mm 5 mps 761 mmHg 37%
18:00 +13°C° 0 mm 4 mps 761 mmHg 42%
19:00 +11°C° 0 mm 4 mps 761 mmHg 46%
20:00 +10°C° 0 mm 3 mps 761 mmHg 51%
21:00 +9°C° 0 mm 3 mps 761 mmHg 53%
22:00 +9°C° 0 mm 3 mps 761 mmHg 56%
23:00 +8°C° 0 mm 3 mps 761 mmHg 59%

Tomorrow, 12 April, Monday

Time Temperature Precipitation Wind Pressure Humidity
00:00 +7°C° 0 mm 4 mps 761 mmHg 60%
01:00 +7°C° 0 mm 4 mps 760 mmHg 60%
02:00 +7°C° 0 mm 4 mps 760 mmHg 61%
03:00 +7°C° 0 mm 4 mps 760 mmHg 63%
04:00 +7°C° 0 mm 4 mps 760 mmHg 65%
05:00 +7°C° 0 mm 4 mps 759 mmHg 67%
06:00 +7°C° 0 mm 4 mps 759 mmHg 69%
07:00 +8°C° 0 mm 4 mps 759 mmHg 71%
08:00 +10°C° 0 mm 4 mps 759 mmHg 73%
09:00 +12°C° 0 mm 4 mps 759 mmHg 69%
10:00 +14°C° 0 mm 4 mps 758 mmHg 66%
11:00 +17°C° 0 mm 4 mps 758 mmHg 62%
12:00 +18°C° 0 mm 4 mps 758 mmHg 57%
13:00 +19°C° 0 mm 4 mps 757 mmHg 53%
14:00 +20°C° 0 mm 5 mps 757 mmHg 48%
15:00 +20°C° 0 mm 4 mps 756 mmHg 50%
16:00 +19°C° 0 mm 3 mps 756 mmHg 53%
17:00 +18°C° 0 mm 2 mps 756 mmHg 55%
18:00 +18°C° 0 mm 3 mps 756 mmHg 58%
19:00 +17°C° 0 mm 3 mps 757 mmHg 61%
20:00 +15°C° 0 mm 4 mps 757 mmHg 63%
21:00 +14°C° 0 mm 4 mps 757 mmHg 68%
22:00 +13°C° 0 mm 5 mps 757 mmHg 72%
23:00 +13°C° 0 mm 5 mps 757 mmHg 77%

Day after tomorrow, 13 April, Tuesday

Time Temperature Precipitation Wind Pressure Humidity
00:00 +12°C° 0 mm 5 mps 757 mmHg 80%
01:00 +12°C° 0 mm 4 mps 757 mmHg 83%
02:00 +11°C° 0 mm 3 mps 757 mmHg 86%
03:00 +11°C° 0 mm 3 mps 757 mmHg 86%
04:00 +11°C° 0 mm 3 mps 757 mmHg 86%
05:00 +11°C° 0 mm 3 mps 757 mmHg 86%
06:00 +11°C° 0 mm 3 mps 757 mmHg 84%
07:00 +11°C° 0 mm 3 mps 757 mmHg 83%
08:00 +11°C° 0 mm 3 mps 758 mmHg 82%
09:00 +12°C° 0 mm 3 mps 757 mmHg 76%
10:00 +14°C° 0 mm 3 mps 757 mmHg 71%
11:00 +15°C° 0 mm 4 mps 757 mmHg 65%
12:00 +15°C° 0 mm 4 mps 757 mmHg 64%
13:00 +15°C° 0 mm 4 mps 757 mmHg 63%
14:00 +15°C° 0 mm 4 mps 757 mmHg 62%
15:00 +14°C° 0 mm 4 mps 757 mmHg 64%
16:00 +14°C° 0 mm 3 mps 757 mmHg 66%
17:00 +13°C° 0 mm 3 mps 757 mmHg 69%
18:00 +13°C° 0 mm 3 mps 757 mmHg 71%
19:00 +12°C° 0 mm 3 mps 757 mmHg 74%
20:00 +13°C° 0 mm 2 mps 757 mmHg 77%
21:00 +12°C° 0 mm 2 mps 757 mmHg 78%
22:00 +12°C° 0 mm 2 mps 757 mmHg 79%
23:00 +12°C° 0 mm 2 mps 756 mmHg 79%

14 April, Wednesday

Time Temperature Precipitation Wind Pressure Humidity
00:00 +12°C° 0 mm 2 mps 756 mmHg 81%
01:00 +10°C° 0 mm 2 mps 756 mmHg 82%
02:00 +10°C° 0 mm 2 mps 756 mmHg 84%
03:00 +9°C° 0 mm 2 mps 756 mmHg 85%
04:00 +9°C° 0 mm 2 mps 756 mmHg 86%
05:00 +9°C° 0 mm 2 mps 756 mmHg 88%
06:00 +9°C° 0 mm 2 mps 756 mmHg 83%
07:00 +10°C° 0 mm 2 mps 756 mmHg 78%
08:00 +12°C° 0 mm 2 mps 756 mmHg 73%
09:00 +12°C° 0 mm 3 mps 755 mmHg 68%
10:00 +13°C° 0 mm 3 mps 755 mmHg 64%
11:00 +14°C° 0 mm 3 mps 755 mmHg 59%
12:00 +14°C° 0 mm 3 mps 755 mmHg 56%
13:00 +16°C° 0 mm 3 mps 754 mmHg 53%
14:00 +16°C° 0 mm 3 mps 754 mmHg 50%
15:00 +16°C° 0 mm 3 mps 754 mmHg 52%
16:00 +16°C° 0 mm 2 mps 754 mmHg 55%
17:00 +15°C° 0 mm 2 mps 754 mmHg 57%
18:00 +15°C° 0 mm 1 mps 754 mmHg 60%
19:00 +14°C° 0 mm 1 mps 754 mmHg 62%
20:00 +14°C° 0 mm 1 mps 754 mmHg 65%
21:00 +13°C° 0 mm 1 mps 754 mmHg 67%
22:00 +12°C° 0 mm 1 mps 754 mmHg 70%
23:00 +12°C° 0 mm 1 mps 753 mmHg 73%

15 April, Thursday

Time Temperature Precipitation Wind Pressure Humidity
00:00 +11°C° 0 mm 1 mps 753 mmHg 75%
01:00 +11°C° 0 mm 1 mps 753 mmHg 76%
02:00 +10°C° 0 mm 1 mps 753 mmHg 78%
03:00 +10°C° 0 mm 1 mps 753 mmHg 79%
04:00 +10°C° 0 mm 1 mps 753 mmHg 80%
05:00 +10°C° 0 mm 1 mps 753 mmHg 80%
06:00 +11°C° 0 mm 1 mps 753 mmHg 75%
07:00 +13°C° 0 mm 1 mps 753 mmHg 70%
08:00 +14°C° 0 mm 2 mps 753 mmHg 64%
09:00 +15°C° 0 mm 2 mps 753 mmHg 59%
10:00 +17°C° 0 mm 2 mps 752 mmHg 53%
11:00 +18°C° 0 mm 2 mps 752 mmHg 48%
12:00 +18°C° 0 mm 2 mps 752 mmHg 46%
13:00 +19°C° 0 mm 2 mps 751 mmHg 43%
14:00 +19°C° 0 mm 2 mps 751 mmHg 41%
15:00 +19°C° 0 mm 2 mps 751 mmHg 45%
16:00 +18°C° 0 mm 2 mps 751 mmHg 49%
17:00 +18°C° 0 mm 1 mps 750 mmHg 53%
18:00 +16°C° 0.1 mm 2 mps 750 mmHg 57%
19:00 +16°C° 0.1 mm 2 mps 750 mmHg 60%
20:00 +14°C° 0.1 mm 3 mps 750 mmHg 64%
21:00 +13°C° 0.4 mm 3 mps 750 mmHg 71%
22:00 +13°C° 0.4 mm 2 mps 750 mmHg 78%
23:00 +12°C° 0.4 mm 2 mps 750 mmHg 85%

16 April, Friday

Time Temperature Precipitation Wind Pressure Humidity
00:00 +11°C° 0.1 mm 3 mps 750 mmHg 85%
01:00 +11°C° 0.1 mm 3 mps 750 mmHg 86%
02:00 +10°C° 0.1 mm 3 mps 750 mmHg 86%
03:00 +10°C° 0 mm 3 mps 750 mmHg 87%
04:00 +10°C° 0 mm 3 mps 750 mmHg 87%
05:00 +10°C° 0 mm 3 mps 750 mmHg 88%
06:00 +10°C° 0.2 mm 3 mps 750 mmHg 87%
07:00 +10°C° 0.2 mm 4 mps 750 mmHg 86%
08:00 +10°C° 0.2 mm 4 mps 750 mmHg 85%
09:00 +10°C° 0.3 mm 4 mps 750 mmHg 83%
10:00 +10°C° 0.3 mm 5 mps 751 mmHg 82%
11:00 +10°C° 0.3 mm 5 mps 751 mmHg 80%
12:00 +10°C° 0.1 mm 5 mps 751 mmHg 74%
13:00 +12°C° 0.1 mm 5 mps 751 mmHg 67%
14:00 +12°C° 0.1 mm 5 mps 751 mmHg 61%
15:00 +10°C° 0 mm 5 mps 752 mmHg 67%
16:00 +11°C° 0 mm 4 mps 752 mmHg 74%
17:00 +10°C° 0 mm 3 mps 752 mmHg 80%
18:00 +10°C° 0.1 mm 3 mps 753 mmHg 81%
19:00 +10°C° 0.1 mm 2 mps 753 mmHg 83%
20:00 +9°C° 0.1 mm 2 mps 753 mmHg 84%
21:00 +9°C° 0.1 mm 2 mps 754 mmHg 84%
22:00 +10°C° 0.1 mm 1 mps 754 mmHg 85%
23:00 +10°C° 0.1 mm 1 mps 754 mmHg 85%
Show more